Weather History for Sparta, WI

Change the Weather History Date:

Wednesday, May 1, 2013

  Actual Average Record
Temperature  
Mean Temperature 50 °F -  
Max Temperature 60 °F 64 °F 90 °F (1952)
Min Temperature 39 °F 38 °F 22 °F (1963)
Degree Days  
Heating Degree Days 16    
Moisture  
Dew Point 39 °F    
Average Humidity 63    
Maximum Humidity 87    
Minimum Humidity 42    
Precipitation  
Precipitation 0.00 in - - ()
Sea Level Pressure  
Sea Level Pressure 30.17 in    
Wind  
Wind Speed 8 mph (NNW)    
Max Wind Speed 20 mph    
Max Gust Speed 25 mph    
Visibility 10 miles    
Events      
Averages and records for this station are not official NWS values.
T = Trace of Precipitation, MM = Missing Value Source: NWS Daily Summary

Daily Weather History Graph

Daily Weather History Graph

Search for Another Location

Airport:

Trip Planner

Search our weather history database for the weather conditions in past years. The results will help you decide how hot, cold, wet, or windy it might be!

Date:

Astronomy

May. 01, 2013 Rise Set
Actual Time 5:54 AM CDT 8:06 PM CDT
Civil Twilight 5:22 AM CDT 8:38 PM CDT
Nautical Twilight 4:43 AM CDT 9:17 PM CDT
Astronomical Twilight 4:00 AM CDT 10:01 PM CDT
Moon 1:16 AM CDT (5/1) 11:32 AM CDT (5/1)
Length of Visible Light 15h 15m
Length of Day
14h 12m
Waning Gibbous, 59% of the Moon is Illuminated
May 1
Waning Gibbous
May 2
Last Quarter
May 9
New
May 17
First Quarter
May 24
Full

Hourly Weather History & Observations

Time (CDT) Temp. Windchill Dew Point Humidity Pressure Visibility Wind Dir Wind Speed Gust Speed Precip Events Conditions
12:15 AM 53.6 °F - 42.8 °F 67% 29.97 in 10.0 mi North 4.6 mph - N/A   Scattered Clouds
12:35 AM 53.6 °F - 42.8 °F 67% 29.96 in 10.0 mi North 4.6 mph - N/A   Scattered Clouds
12:55 AM 53.6 °F - 42.8 °F 67% 29.98 in 10.0 mi Calm Calm - N/A   Clear
1:15 AM 53.6 °F - 44.6 °F 72% 29.97 in 10.0 mi NNE 5.8 mph - N/A   Clear
1:35 AM 53.6 °F - 44.6 °F 72% 29.96 in 10.0 mi NNE 3.5 mph - N/A   Clear
1:55 AM 53.6 °F - 44.6 °F 72% 29.97 in 10.0 mi ENE 3.5 mph - N/A   Clear
2:15 AM 53.6 °F - 44.6 °F 72% 29.98 in 10.0 mi North 4.6 mph - N/A   Clear
2:35 AM 51.8 °F - 44.6 °F 76% 29.98 in 10.0 mi North 3.5 mph - N/A   Clear
2:55 AM 51.8 °F - 42.8 °F 71% 29.98 in 10.0 mi Calm Calm - N/A   Clear
3:15 AM 51.8 °F - 44.6 °F 76% 30.00 in 10.0 mi Calm Calm - N/A   Clear
3:35 AM 51.8 °F - 42.8 °F 71% 30.01 in 10.0 mi Calm Calm - N/A   Clear
3:55 AM 50.0 °F - 42.8 °F 76% 30.03 in 10.0 mi WNW 3.5 mph - N/A   Scattered Clouds
4:15 AM 50.0 °F - 42.8 °F 76% 30.04 in 10.0 mi NW 6.9 mph - N/A   Scattered Clouds
4:35 AM 50.0 °F - 42.8 °F 76% 30.05 in 10.0 mi NW 3.5 mph - N/A   Clear
4:55 AM 50.0 °F - 42.8 °F 76% 30.05 in 10.0 mi Calm Calm - N/A   Clear
5:15 AM 48.2 °F - 42.8 °F 82% 30.06 in 10.0 mi NNW 3.5 mph - N/A   Clear
5:35 AM 48.2 °F - 44.6 °F 87% 30.06 in 10.0 mi NW 4.6 mph - N/A   Clear
5:55 AM 48.2 °F - 42.8 °F 82% 30.08 in 10.0 mi NNW 6.9 mph - N/A   Clear
6:15 AM 48.2 °F - 41.0 °F 76% 30.10 in 10.0 mi NW 3.5 mph - N/A   Clear
6:35 AM 48.2 °F - 41.0 °F 76% 30.10 in 10.0 mi Calm Calm - N/A   Clear
6:55 AM 48.2 °F - 41.0 °F 76% 30.11 in 10.0 mi North 3.5 mph - N/A   Clear
7:15 AM 50.0 °F - 39.2 °F 66% 30.12 in 10.0 mi NNW 3.5 mph - N/A   Mostly Cloudy
7:35 AM 50.0 °F - 39.2 °F 66% 30.14 in 10.0 mi NW 6.9 mph - N/A   Overcast
7:55 AM 51.8 °F - 39.2 °F 62% 30.14 in 10.0 mi North 4.6 mph - N/A   Scattered Clouds
8:15 AM 53.6 °F - 37.4 °F 54% 30.15 in 10.0 mi NNW 8.1 mph - N/A   Clear
8:35 AM 53.6 °F - 37.4 °F 54% 30.16 in 10.0 mi NNW 13.8 mph 18.4 mph N/A   Scattered Clouds
8:55 AM 53.6 °F - 37.4 °F 54% 30.16 in 10.0 mi NNW 10.4 mph 18.4 mph N/A   Clear
9:15 AM 53.6 °F - 37.4 °F 54% 30.15 in 10.0 mi NNW 17.3 mph 23.0 mph N/A   Clear
9:35 AM 55.4 °F - 39.2 °F 54% 30.15 in 10.0 mi North 11.5 mph - N/A   Clear
9:55 AM 57.2 °F - 39.2 °F 51% 30.16 in 10.0 mi North 12.7 mph 16.1 mph N/A   Clear
10:15 AM 57.2 °F - 37.4 °F 48% 30.16 in 10.0 mi NNW 15.0 mph 23.0 mph N/A   Clear
10:35 AM 59.0 °F - 37.4 °F 45% 30.16 in 10.0 mi North 10.4 mph 20.7 mph N/A   Clear
10:55 AM 59.0 °F - 37.4 °F 45% 30.16 in 10.0 mi NNE 17.3 mph - N/A   Clear
11:15 AM 59.0 °F - 39.2 °F 48% 30.15 in 10.0 mi NNW 15.0 mph 18.4 mph N/A   Clear
11:35 AM 57.2 °F - 41.0 °F 55% 30.16 in 10.0 mi NNW 13.8 mph 21.9 mph N/A   Scattered Clouds
11:55 AM 59.0 °F - 39.2 °F 48% 30.16 in 10.0 mi NNW 13.8 mph 19.6 mph N/A   Clear
12:15 PM 59.0 °F - 41.0 °F 51% 30.17 in 10.0 mi NNW 16.1 mph 21.9 mph N/A   Scattered Clouds
12:35 PM 57.2 °F - 41.0 °F 55% 30.18 in 10.0 mi NNW 16.1 mph 24.2 mph N/A   Scattered Clouds
12:55 PM 57.2 °F - 41.0 °F 55% 30.19 in 10.0 mi NW 13.8 mph 21.9 mph N/A   Clear
1:15 PM 57.2 °F - 41.0 °F 55% 30.19 in 10.0 mi NNW 15.0 mph 20.7 mph N/A   Scattered Clouds
1:35 PM 57.2 °F - 39.2 °F 51% 30.20 in 10.0 mi NNW 15.0 mph 24.2 mph N/A   Scattered Clouds
1:55 PM 59.0 °F - 39.2 °F 48% 30.20 in 10.0 mi North 12.7 mph 18.4 mph N/A   Scattered Clouds
2:15 PM 59.0 °F - 41.0 °F 51% 30.20 in 10.0 mi NNW 16.1 mph 20.7 mph N/A   Mostly Cloudy
2:35 PM 59.0 °F - 41.0 °F 51% 30.20 in 10.0 mi NNW 13.8 mph 20.7 mph N/A   Scattered Clouds
2:55 PM 59.0 °F - 39.2 °F 48% 30.20 in 10.0 mi NNW 15.0 mph 21.9 mph N/A   Clear
3:15 PM 59.0 °F - 37.4 °F 45% 30.20 in 10.0 mi NNW 10.4 mph 23.0 mph N/A   Clear
3:35 PM 60.8 °F - 37.4 °F 42% 30.20 in 10.0 mi North 13.8 mph 18.4 mph N/A   Clear
3:55 PM 60.8 °F - 37.4 °F 42% 30.20 in 10.0 mi North 11.5 mph 19.6 mph N/A   Clear
4:15 PM 59.0 °F - 37.4 °F 45% 30.22 in 10.0 mi NNW 13.8 mph 19.6 mph N/A   Clear
4:35 PM 59.0 °F - 39.2 °F 48% 30.22 in 10.0 mi NNW 12.7 mph - N/A   Clear
5:15 PM 55.4 °F - 37.4 °F 51% 30.24 in 10.0 mi NNW 18.4 mph 25.3 mph N/A   Clear
5:35 PM 53.6 °F - 37.4 °F 54% 30.25 in 10.0 mi NNW 13.8 mph 24.2 mph N/A   Clear
5:55 PM 51.8 °F - 37.4 °F 58% 30.25 in 10.0 mi NNW 18.4 mph - N/A   Clear
6:15 PM 48.2 °F - 37.4 °F 66% 30.26 in 10.0 mi NNW 19.6 mph 25.3 mph N/A   Clear
6:55 PM 46.4 °F 40.1 °F 37.4 °F 71% 30.29 in 10.0 mi NNW 15.0 mph 24.2 mph N/A   Scattered Clouds
7:15 PM 46.4 °F 40.7 °F 35.6 °F 66% 30.30 in 10.0 mi NNW 12.7 mph 25.3 mph N/A   Mostly Cloudy
7:35 PM 44.6 °F 38.1 °F 35.6 °F 71% 30.30 in 10.0 mi North 13.8 mph 20.7 mph N/A   Mostly Cloudy
7:55 PM 42.8 °F 37.0 °F 33.8 °F 70% 30.32 in 10.0 mi NNW 10.4 mph 19.6 mph N/A   Scattered Clouds
8:35 PM 42.8 °F 36.2 °F 33.8 °F 70% 30.34 in 10.0 mi NNW 12.7 mph - N/A   Scattered Clouds
8:55 PM 42.8 °F 36.2 °F 33.8 °F 70% 30.34 in 10.0 mi NNW 12.7 mph 23.0 mph N/A   Scattered Clouds
8:57 PM 42.8 °F 36.2 °F 33.8 °F 70% 30.35 in 10.0 mi North 12.7 mph 19.6 mph N/A   Scattered Clouds
9:35 PM 41.0 °F 34.7 °F 32.0 °F 70% 30.36 in 10.0 mi NNW 10.4 mph 19.6 mph N/A   Mostly Cloudy
9:55 PM 41.0 °F 33.5 °F 32.0 °F 70% 30.35 in 10.0 mi North 13.8 mph 20.7 mph N/A   Overcast
10:15 PM 41.0 °F 34.7 °F 32.0 °F 70% 30.35 in 10.0 mi North 10.4 mph 20.7 mph N/A   Overcast
10:35 PM 39.2 °F 32.0 °F 32.0 °F 75% 30.35 in 10.0 mi North 11.5 mph 18.4 mph N/A   Overcast
10:55 PM 39.2 °F 31.2 °F 32.0 °F 75% 30.32 in 10.0 mi North 13.8 mph 18.4 mph N/A   Overcast
11:15 PM 39.2 °F 32.0 °F 32.0 °F 75% 30.34 in 10.0 mi NNE 11.5 mph - N/A   Overcast
11:35 PM 39.2 °F 31.6 °F 32.0 °F 75% 30.34 in 10.0 mi North 12.7 mph 20.7 mph N/A   Overcast
11:55 PM 39.2 °F 32.5 °F 32.0 °F 75% 30.35 in 10.0 mi North 10.4 mph 18.4 mph N/A   Overcast